IGO182 VOBL-VOMM

Flight info

Callsign IGO182
Flight time 0h 47m
Altitude 17000
Route BIA W116 MMV
Aircraft A21N/M-SDE2E3FGHIRWXY/LB1

Departure

Time 2026-05-06 16:02
Airport Kempegowda International Airport Bengaluru (VOBL)

Arrival

Time 2026-05-06 16:49
Airport Chennai International Airport (VOMM)
Time Latitude Longitude Altitude Speed Heading
2026-05-06 15:34 13.20361 77.70024 2985 ft 0 kts
2026-05-06 15:49 13.20355 77.70024 2985 ft 2 kts
2026-05-06 15:49 13.20345 77.70024 2985 ft 2 kts 360°
2026-05-06 15:49 13.20329 77.70024 2984 ft 2 kts
2026-05-06 15:49 13.20316 77.70024 2984 ft 0 kts 360°
2026-05-06 15:50 13.20306 77.70024 2983 ft 2 kts 345°
2026-05-06 15:50 13.20294 77.70033 2983 ft 2 kts 313°
2026-05-06 15:50 13.20286 77.70045 2983 ft 2 kts 285°
2026-05-06 15:50 13.20285 77.70052 2983 ft 1 kts 269°
2026-05-06 15:51 13.20285 77.70058 2983 ft 0 kts 269°
2026-05-06 15:53 13.20285 77.70056 2983 ft 1 kts 269°
2026-05-06 15:53 13.20285 77.70038 2982 ft 3 kts 269°
2026-05-06 15:54 13.20286 77.70000 2982 ft 6 kts 272°
2026-05-06 15:54 13.20287 77.69939 2981 ft 10 kts 271°
2026-05-06 15:54 13.20288 77.69860 2979 ft 13 kts 271°
2026-05-06 15:54 13.20289 77.69769 2979 ft 14 kts 270°
2026-05-06 15:55 13.20289 77.69669 2979 ft 14 kts 271°
2026-05-06 15:55 13.20291 77.69563 2984 ft 12 kts 271°
2026-05-06 15:55 13.20292 77.69480 2987 ft 10 kts 270°
2026-05-06 15:55 13.20292 77.69408 2990 ft 9 kts 270°
2026-05-06 15:56 13.20310 77.69353 2993 ft 7 kts 318°
2026-05-06 15:56 13.20345 77.69336 2995 ft 4 kts 351°
2026-05-06 15:56 13.20362 77.69334 2995 ft 4 kts 354°
2026-05-06 15:56 13.20400 77.69332 2997 ft 5 kts 359°
2026-05-06 15:57 13.20446 77.69331 2999 ft 6 kts 359°
2026-05-06 15:57 13.20502 77.69325 3001 ft 7 kts 333°
2026-05-06 15:57 13.20533 77.69270 3003 ft 10 kts 278°
2026-05-06 15:57 13.20538 77.69187 3004 ft 12 kts 271°
2026-05-06 15:58 13.20541 77.69089 3006 ft 14 kts 271°
2026-05-06 15:58 13.20540 77.68977 3009 ft 16 kts 270°
2026-05-06 15:58 13.20541 77.68849 3010 ft 18 kts 271°
2026-05-06 15:58 13.20543 77.68712 3011 ft 19 kts 271°
2026-05-06 15:59 13.20578 77.68629 3011 ft 11 kts 330°
2026-05-06 15:59 13.20611 77.68619 3011 ft 0 kts 350°
2026-05-06 15:59 13.20614 77.68619 3011 ft 0 kts 350°
2026-05-06 16:00 13.20616 77.68618 3011 ft 0 kts 350°
2026-05-06 16:00 13.20624 77.68617 3011 ft 2 kts 353°
2026-05-06 16:00 13.20669 77.68619 3012 ft 10 kts 13°
2026-05-06 16:00 13.20715 77.68704 3011 ft 19 kts 89°
2026-05-06 16:01 13.20712 77.68937 3011 ft 60 kts 92°
2026-05-06 16:01 13.20706 77.69631 2999 ft 130 kts 90°
2026-05-06 16:01 13.20693 77.70761 2970 ft 184 kts 91°
2026-05-06 16:01 13.20688 77.72089 3571 ft 186 kts 87°
2026-05-06 16:02 13.21007 77.73402 4212 ft 193 kts 65°
2026-05-06 16:02 13.21748 77.74516 4767 ft 193 kts 52°
2026-05-06 16:02 13.22574 77.75660 5068 ft 206 kts 58°
2026-05-06 16:02 13.23357 77.76979 5383 ft 220 kts 60°
2026-05-06 16:03 13.24145 77.78400 5617 ft 240 kts 62°
2026-05-06 16:03 13.24852 77.80006 5925 ft 258 kts 79°
2026-05-06 16:03 13.24790 77.81900 6329 ft 273 kts 102°
2026-05-06 16:03 13.24319 77.83781 6994 ft 277 kts 105°
2026-05-06 16:04 13.23803 77.85684 7699 ft 280 kts 104°
2026-05-06 16:04 13.23301 77.87637 8403 ft 284 kts 103°
2026-05-06 16:04 13.22829 77.89595 9094 ft 287 kts 102°
2026-05-06 16:04 13.22368 77.91598 9786 ft 291 kts 102°
2026-05-06 16:05 13.21914 77.93624 10421 ft 297 kts 101°
2026-05-06 16:05 13.21447 77.95755 10762 ft 313 kts 101°
2026-05-06 16:05 13.20958 77.98021 11081 ft 330 kts 101°
2026-05-06 16:05 13.20458 78.00347 11610 ft 338 kts 101°
2026-05-06 16:06 13.19957 78.02678 12274 ft 341 kts 101°
2026-05-06 16:06 13.19466 78.04960 12907 ft 344 kts 101°
2026-05-06 16:06 13.18951 78.07355 13558 ft 347 kts 101°
2026-05-06 16:06 13.18426 78.09801 14210 ft 350 kts 101°
2026-05-06 16:07 13.17910 78.12206 14834 ft 353 kts 101°
2026-05-06 16:07 13.17388 78.14633 15448 ft 355 kts 101°
2026-05-06 16:07 13.16879 78.17004 16033 ft 358 kts 101°
2026-05-06 16:07 13.16401 78.19228 16553 ft 361 kts 101°
2026-05-06 16:08 13.15825 78.21909 16900 ft 363 kts 101°
2026-05-06 16:08 13.15274 78.24470 16945 ft 362 kts 101°
2026-05-06 16:08 13.14742 78.26943 16952 ft 362 kts 101°
2026-05-06 16:08 13.14213 78.29398 16956 ft 362 kts 101°
2026-05-06 16:09 13.13674 78.31900 16957 ft 362 kts 101°
2026-05-06 16:09 13.13184 78.34177 16958 ft 362 kts 101°
2026-05-06 16:09 13.12622 78.36783 16958 ft 362 kts 101°
2026-05-06 16:09 13.12081 78.39295 16958 ft 362 kts 101°
2026-05-06 16:10 13.11538 78.41810 16958 ft 362 kts 101°
2026-05-06 16:10 13.10991 78.44344 16958 ft 362 kts 101°
2026-05-06 16:10 13.10444 78.46876 16958 ft 362 kts 101°
2026-05-06 16:10 13.09900 78.49394 16958 ft 362 kts 101°
2026-05-06 16:11 13.09359 78.51897 16957 ft 362 kts 101°
2026-05-06 16:11 13.08814 78.54416 16953 ft 361 kts 101°
2026-05-06 16:11 13.08264 78.56957 16946 ft 361 kts 101°
2026-05-06 16:11 13.07720 78.59467 16937 ft 361 kts 101°
2026-05-06 16:12 13.07185 78.61938 16926 ft 361 kts 101°
2026-05-06 16:12 13.06644 78.64434 16916 ft 361 kts 101°
2026-05-06 16:12 13.06097 78.66963 16903 ft 361 kts 101°
2026-05-06 16:12 13.05552 78.69484 16890 ft 361 kts 101°
2026-05-06 16:13 13.05077 78.71683 16878 ft 361 kts 101°
2026-05-06 16:13 13.04496 78.74364 16865 ft 361 kts 101°
2026-05-06 16:13 13.03953 78.76863 16854 ft 361 kts 101°
2026-05-06 16:13 13.03410 78.79365 16844 ft 361 kts 101°
2026-05-06 16:14 13.02891 78.81754 16838 ft 361 kts 101°
2026-05-06 16:14 13.02383 78.84087 16833 ft 360 kts 101°
2026-05-06 16:14 13.01817 78.86684 16830 ft 360 kts 101°
2026-05-06 16:14 13.01275 78.89174 16827 ft 360 kts 101°
2026-05-06 16:15 13.00759 78.91541 16826 ft 360 kts 101°
2026-05-06 16:15 13.00199 78.94109 16824 ft 360 kts 101°
2026-05-06 16:15 12.99663 78.96567 16824 ft 360 kts 101°
2026-05-06 16:15 12.99125 78.99030 16823 ft 360 kts 101°
2026-05-06 16:16 12.98585 79.01503 16822 ft 361 kts 101°
2026-05-06 16:16 12.98041 79.03990 16822 ft 361 kts 101°
2026-05-06 16:16 12.97498 79.06485 16821 ft 362 kts 100°
2026-05-06 16:16 12.97084 79.09016 16819 ft 361 kts 95°
2026-05-06 16:17 12.96898 79.11562 16819 ft 361 kts 89°
2026-05-06 16:17 12.96906 79.14095 16821 ft 361 kts 87°
2026-05-06 16:17 12.96964 79.16617 16821 ft 362 kts 86°
2026-05-06 16:17 12.97029 79.19222 16821 ft 362 kts 86°
2026-05-06 16:18 12.97090 79.21801 16822 ft 363 kts 87°
2026-05-06 16:18 12.97147 79.24356 16822 ft 363 kts 87°
2026-05-06 16:18 12.97196 79.26681 16822 ft 363 kts 87°
2026-05-06 16:18 12.97251 79.29391 16822 ft 363 kts 87°
2026-05-06 16:19 12.97303 79.32022 16822 ft 363 kts 87°
2026-05-06 16:19 12.97354 79.34615 16822 ft 363 kts 87°
2026-05-06 16:19 12.97404 79.37167 16822 ft 363 kts 87°
2026-05-06 16:19 12.97453 79.39707 16822 ft 363 kts 87°
2026-05-06 16:20 12.97501 79.42254 16731 ft 363 kts 87°
2026-05-06 16:20 12.97550 79.44807 16481 ft 361 kts 87°
2026-05-06 16:20 12.97596 79.47273 16241 ft 360 kts 87°
2026-05-06 16:20 12.97644 79.49848 15989 ft 359 kts 87°
2026-05-06 16:21 12.97693 79.52420 15737 ft 357 kts 87°
2026-05-06 16:21 12.97739 79.54932 15490 ft 356 kts 87°
2026-05-06 16:21 12.97787 79.57488 15238 ft 355 kts 87°
2026-05-06 16:21 12.97833 79.60000 14990 ft 354 kts 87°
2026-05-06 16:22 12.97879 79.62503 14741 ft 353 kts 87°
2026-05-06 16:22 12.97923 79.64958 14497 ft 352 kts 87°
2026-05-06 16:22 12.97967 79.67400 14253 ft 351 kts 87°
2026-05-06 16:22 12.98010 79.69871 14006 ft 350 kts 87°
2026-05-06 16:23 12.98053 79.72317 13760 ft 349 kts 88°
2026-05-06 16:23 12.98096 79.74779 13512 ft 348 kts 88°
2026-05-06 16:23 12.98139 79.77235 13263 ft 347 kts 88°
2026-05-06 16:23 12.98155 79.79676 12896 ft 345 kts 89°
2026-05-06 16:24 12.98132 79.82130 12069 ft 354 kts 89°
2026-05-06 16:24 12.98098 79.84603 11304 ft 360 kts 89°
2026-05-06 16:24 12.98058 79.87178 10525 ft 364 kts 90°
2026-05-06 16:24 12.97719 79.89741 9741 ft 369 kts 106°
2026-05-06 16:25 12.96575 79.92036 9146 ft 369 kts 127°
2026-05-06 16:25 12.94867 79.93856 8860 ft 358 kts 136°
2026-05-06 16:25 12.93017 79.95513 8808 ft 340 kts 139°
2026-05-06 16:25 12.91274 79.97026 8801 ft 322 kts 139°
2026-05-06 16:26 12.89603 79.98467 8794 ft 304 kts 139°
2026-05-06 16:26 12.88018 79.99818 8791 ft 288 kts 139°
2026-05-06 16:26 12.86532 80.01078 8650 ft 277 kts 139°
2026-05-06 16:26 12.85085 80.02302 8479 ft 268 kts 139°
2026-05-06 16:27 12.83685 80.03483 8311 ft 259 kts 139°
2026-05-06 16:27 12.82309 80.04640 8083 ft 253 kts 139°
2026-05-06 16:27 12.80976 80.05759 7767 ft 252 kts 139°
2026-05-06 16:27 12.79619 80.06898 7437 ft 250 kts 139°
2026-05-06 16:28 12.78274 80.08025 7116 ft 249 kts 139°
2026-05-06 16:28 12.76937 80.09143 6784 ft 248 kts 139°
2026-05-06 16:28 12.75586 80.10257 6321 ft 253 kts 144°
2026-05-06 16:28 12.74041 80.10921 5929 ft 256 kts 172°
2026-05-06 16:29 12.72278 80.10722 5591 ft 257 kts 201°
2026-05-06 16:29 12.70836 80.09663 5247 ft 257 kts 231°
2026-05-06 16:29 12.69950 80.08092 4924 ft 255 kts 245°
2026-05-06 16:29 12.69265 80.06406 4585 ft 254 kts 248°
2026-05-06 16:30 12.68633 80.04731 4255 ft 254 kts 249°
2026-05-06 16:30 12.68232 80.03646 4047 ft 253 kts 249°
2026-05-06 16:30 12.67637 80.02027 3737 ft 251 kts 249°
2026-05-06 16:30 12.66987 80.00242 3396 ft 250 kts 249°
2026-05-06 16:31 12.66410 79.98649 3093 ft 249 kts 249°
2026-05-06 16:31 12.65810 79.96980 2777 ft 248 kts 249°
2026-05-06 16:31 12.65218 79.95324 2464 ft 246 kts 249°
2026-05-06 16:31 12.64636 79.93685 2272 ft 239 kts 249°
2026-05-06 16:32 12.64072 79.92088 2266 ft 237 kts 249°
2026-05-06 16:32 12.63510 79.90499 2264 ft 237 kts 249°
2026-05-06 16:32 12.63214 79.88827 2251 ft 239 kts 275°
2026-05-06 16:32 12.63755 79.87251 2258 ft 239 kts 306°
2026-05-06 16:33 12.64853 79.85973 2267 ft 238 kts 316°
2026-05-06 16:33 12.66071 79.84801 2267 ft 238 kts 319°
2026-05-06 16:33 12.67294 79.83659 2270 ft 238 kts 319°
2026-05-06 16:34 12.69733 79.81391 2278 ft 238 kts 319°
2026-05-06 16:34 12.70972 79.80240 2281 ft 238 kts 319°
2026-05-06 16:34 12.72202 79.79098 2283 ft 238 kts 319°
2026-05-06 16:34 12.73423 79.77962 2285 ft 238 kts 319°
2026-05-06 16:35 12.74662 79.76812 2286 ft 238 kts 319°
2026-05-06 16:35 12.75889 79.75672 2287 ft 238 kts 319°
2026-05-06 16:35 12.77514 79.74162 2287 ft 238 kts 319°
2026-05-06 16:35 12.78350 79.73385 2288 ft 238 kts 319°
2026-05-06 16:36 12.79561 79.72260 2288 ft 238 kts 319°
2026-05-06 16:36 12.80794 79.71115 2288 ft 238 kts 319°
2026-05-06 16:36 12.82011 79.69984 2288 ft 238 kts 319°
2026-05-06 16:36 12.83223 79.68858 2288 ft 238 kts 319°
2026-05-06 16:37 12.84457 79.67712 2288 ft 238 kts 319°
2026-05-06 16:37 12.85676 79.66579 2288 ft 237 kts 319°
2026-05-06 16:37 12.86905 79.65434 2288 ft 237 kts 319°
2026-05-06 16:37 12.88142 79.64281 2288 ft 237 kts 319°
2026-05-06 16:38 12.89423 79.63247 2276 ft 234 kts 336°
2026-05-06 16:38 12.90998 79.62933 2279 ft 230 kts
2026-05-06 16:38 12.92441 79.63533 2279 ft 226 kts 42°
2026-05-06 16:38 12.93374 79.64815 2290 ft 226 kts 64°
2026-05-06 16:39 12.94027 79.66304 2291 ft 227 kts 69°
2026-05-06 16:39 12.94614 79.67793 2291 ft 227 kts 69°
2026-05-06 16:39 12.95204 79.69308 2291 ft 228 kts 69°
2026-05-06 16:39 12.95795 79.70830 2290 ft 228 kts 69°
2026-05-06 16:40 12.96373 79.72317 2290 ft 228 kts 69°
2026-05-06 16:40 12.96953 79.73850 2288 ft 227 kts 74°
2026-05-06 16:40 12.97102 79.75459 2286 ft 226 kts 94°
2026-05-06 16:40 12.96929 79.77053 2288 ft 226 kts 98°
2026-05-06 16:41 12.96696 79.78629 2289 ft 226 kts 99°
2026-05-06 16:41 12.96449 79.80220 2289 ft 226 kts 99°
2026-05-06 16:41 12.96198 79.81822 2289 ft 226 kts 99°
2026-05-06 16:41 12.95953 79.83379 2290 ft 226 kts 99°
2026-05-06 16:42 12.95701 79.84981 2285 ft 220 kts 99°
2026-05-06 16:42 12.95466 79.86474 2278 ft 206 kts 99°
2026-05-06 16:42 12.95237 79.87940 2286 ft 205 kts 99°
2026-05-06 16:42 12.95009 79.89390 2288 ft 205 kts 99°
2026-05-06 16:43 12.94784 79.90824 2289 ft 205 kts 99°
2026-05-06 16:43 12.94558 79.92261 2289 ft 205 kts 99°
2026-05-06 16:43 12.94329 79.93720 2290 ft 205 kts 99°
2026-05-06 16:43 12.94103 79.95158 2290 ft 205 kts 99°
2026-05-06 16:44 12.93874 79.96617 2290 ft 205 kts 99°
2026-05-06 16:44 12.93648 79.98061 2290 ft 205 kts 99°
2026-05-06 16:44 12.93422 79.99500 2290 ft 205 kts 99°
2026-05-06 16:44 12.93330 80.00966 2288 ft 205 kts 85°
2026-05-06 16:45 12.93745 80.02866 2129 ft 200 kts 72°
2026-05-06 16:45 12.94055 80.03743 2094 ft 189 kts 70°
2026-05-06 16:45 12.94518 80.04940 1899 ft 179 kts 70°
2026-05-06 16:45 12.94954 80.06064 1793 ft 163 kts 70°
2026-05-06 16:46 12.95342 80.07082 1721 ft 152 kts 70°
2026-05-06 16:46 12.95715 80.08078 1515 ft 150 kts 71°
2026-05-06 16:46 12.96091 80.09087 1352 ft 150 kts 71°
2026-05-06 16:46 12.96465 80.10084 1143 ft 150 kts 71°
2026-05-06 16:47 12.96835 80.11072 940 ft 149 kts 71°
2026-05-06 16:47 12.97203 80.12052 738 ft 149 kts 71°
2026-05-06 16:47 12.97578 80.13051 533 ft 149 kts 71°
2026-05-06 16:47 12.97947 80.14035 333 ft 149 kts 71°
2026-05-06 16:48 12.98311 80.15004 166 ft 148 kts 71°
2026-05-06 16:48 12.98654 80.15944 58 ft 139 kts 71°
2026-05-06 16:48 12.98973 80.16790 45 ft 103 kts 68°
2026-05-06 16:48 12.99173 80.17310 45 ft 54 kts 69°
2026-05-06 16:49 12.99260 80.17541 44 ft 27 kts 70°
2026-05-06 16:49 12.99231 80.17658 47 ft 17 kts 196°
2026-05-06 16:49 12.99123 80.17691 49 ft 15 kts 166°